Regional Weather Roundup
Issued by NWS

Home | Current Version | Previous Version | Graphics & Text | Print | Product List | Glossary Off
Versions: 1 2 3 4 5 6 7 8 9 10 11 12 13 14 15 16 17 18 19 20 21 22 23 24 25 26 27 28 29 30 31 32 33 34 35 36 37 38 39 40 41 42 43 44 45 46 47 48 49 50

000
ASUS44 KFWD 052215
RWRTX
NORTH TEXAS HOURLY WEATHER ROUNDUP
NATIONAL WEATHER SERVICE FORT WORTH TX
400 PM CST THU MAR 05 2015

NOTE: "FAIR" INDICATES FEW OR NO CLOUDS BELOW 12,000 FEET WITH NO
SIGNIFICANT WEATHER AND/OR OBSTRUCTIONS TO VISIBILITY.

TXZ118-119-052300-
DALLAS/FORT WORTH METROPLEX

CITY           SKY/WX    TMP DP  RH WIND       PRES   REMARKS
DFW AIRPORT    SUNNY     38  18  44 N9        30.56F WCI  31
DALLAS LOVE    SUNNY     39  19  44 N12       30.56F WCI  32
FTW MEACHAM    SUNNY     40  22  48 N8        30.56F WCI  34
DAL-EXECUTIVE  SUNNY     39  20  46 N8        30.54F WCI  33
FTW-ALLIANCE   SUNNY     40  21  46 NE7       30.56F WCI  35
FTW-SPINKS     SUNNY     39  19  45 N7G17     30.57F WCI  34
ARLINGTON        N/A     40  17  39 N10       30.56F WCI  33
GRAND PRAIRIE  SUNNY     37  21  52 N9        30.58F WCI  31
ADDISON        SUNNY     37  18  44 N8G17     30.57  WCI  31
MESQUITE       SUNNY     36  21  55 N12       30.57  WCI  27
LANCASTER      SUNNY     38  19  47 N8        30.58S WCI  32
$$

TXZ091>094-102>105-117-120-121-131>134-052300-
NORTH CENTRAL TEXAS

CITY           SKY/WX    TMP DP  RH WIND       PRES   REMARKS
SHRMAN/DENISON SUNNY     41  22  47 NE7       30.56S WCI  36
GAINESVILLE    SUNNY     40  16  38 N7        30.57S WCI  35
BOWIE          SUNNY     38  20  49 W3        30.54F
BRIDGEPORT     SUNNY     41  21  45 NW6       30.57F WCI  37
DECATUR        SUNNY     40  16  38 CALM      30.54F
DENTON         SUNNY     40  21  46 N3        30.56F
MCKINNEY       SUNNY     38  20  48 N9        30.56F WCI  31
GREENVILLE     SUNNY     37  25  60 N8        30.57S WCI  31
TERRELL        SUNNY     40  22  48 N14G20    30.56F WCI  32
WAXAHACHIE     SUNNY     38  22  52 NE12      30.57S WCI  30
CLEBURNE       SUNNY     37  19  48 N9        30.57S WCI  31
GRANBURY       SUNNY     41  17  38 NE3       30.57F
$$

TXZ083>090-098>101-113>116-127>130-139>142-154-155-052300-
WESTERN NORTH TEXAS

CITY           SKY/WX    TMP DP  RH WIND       PRES   REMARKS
WICHITA FALLS  SUNNY     40  15  36 CALM      30.54F
WF-KICKAPOO    SUNNY     42  16  35 SW5       30.56S WCI  39
VERNON         SUNNY     43  11  26 SW12      30.52F WCI  37
ABILENE        SUNNY     40  18  41 VRB6      30.52F WCI  36
ABILENE-DYESS  SUNNY     39  20  46 NW3       30.51F
BRECKENRIDGE   SUNNY     41  15  34 CALM      30.54F
GRAHAM         SUNNY     40  20  44 CALM      30.54S
MINERAL WELLS  SUNNY     41  18  39 VRB6      30.54F WCI  37
STEPHENVILLE   SUNNY     39  20  47 N10       30.55F WCI  32
COMANCHE       SUNNY     39  23  51 NE5       30.53F WCI  36
BROWNWOOD      SUNNY     41  18  38 N8        30.52F WCI  36
COLEMAN        SUNNY     40  22  48 NE5       30.51F WCI  37
BRADY          SUNNY     39  19  45 NE9       30.49S WCI  33
$$

TXZ143>147-156>162-174-175-052300-
CENTRAL TEXAS

CITY           SKY/WX    TMP DP  RH WIND       PRES   REMARKS
WACO           SUNNY     42  22  44 N16       30.55F WCI  34
WACO-MCGREGOR  SUNNY     43  25  49 NE17G25   30.55S WCI  35
HILLSBORO      SUNNY     39  21  47 N14       30.55S WCI  31
CORSICANA      SUNNY     41  23  48 N17G25    30.55S WCI  32
MEXIA          SUNNY     39  24  55 MISG      30.52S
HEARNE         SUNNY     44  28  54 N12G22    30.52R WCI  37
CAMERON        SUNNY     43  27  54 N15G22    30.52S WCI  35
TEMPLE         SUNNY     43  16  33 N20G30    30.52S WCI  34
KILLEEN        SUNNY     40  20  45 N15G23    30.51S WCI  32
KILLEEN-SKYLRK SUNNY     43  19  39 N16G24    30.49F WCI  35
FORT HOOD      SUNNY     41  21  45 N17G24    30.51S WCI  32
GATESVILLE     SUNNY     39  21  48 N7        30.55F WCI  34
HAMILTON       SUNNY     40  21  47 N8        30.53F WCI  34
LAMPASAS       SUNNY     40  19  42 N12       30.51F WCI  33
$$

TXZ095>097-106>112-122>126-135>138-148>153-164>167-052300-
EAST TEXAS

CITY           SKY/WX    TMP DP  RH WIND       PRES   REMARKS
PARIS          SUNNY     39  21  48 N8        30.55S WCI  34
SULPHUR SPRNGS SUNNY     39  25  58 NW9G17    30.58S WCI  32
MOUNT PLEASANT SUNNY     41  23  49 N12G17    30.55S WCI  34
GILMER         SUNNY     39  21  47 N12       30.52S WCI  32
MINEOLA        SUNNY     39  21  48 N8G18     30.55S WCI  34
TYLER          SUNNY     43  21  41 N14       30.51S WCI  36
LONGVIEW       SUNNY     42  21  43 N13G22    30.50S WCI  35
MARSHALL       SUNNY     42  20  42 NE10G18   30.53S WCI  36
ATHENS         SUNNY     39  21  48 N16       30.52S WCI  30
PALESTINE      SUNNY     43  22  42 NE15G25   30.51S WCI  36
JACKSONVILLE   SUNNY     42  21  43 N10G21    30.50S WCI  36
HENDERSON      SUNNY     42  21  42 N10G20    30.51S WCI  36
NACOGDOCHES    SUNNY     45  16  31 NE10G22   30.49R WCI  39
LUFKIN         SUNNY     47  20  34 N12G21    30.47S
$$

SUPPLEMENTAL OBSERVATIONS (CENTRAL)

CITY           SKY/WX    TMP DP  RH WIND       PRES   REMARKS
$$

SUPPLEMENTAL OBSERVATIONS (WEST)

CITY           SKY/WX    TMP DP  RH WIND       PRES   REMARKS
$$

SUPPLEMENTAL OBSERVATIONS (EAST)

CITY           SKY/WX    TMP DP  RH WIND       PRES   REMARKS
$$

SUPPLEMENTAL OBSERVATIONS ARE A COLLECTION OF AUTOMATED INSTRUMENTS
THAT ARE MAINTAINED BY A VARIETY OF FEDERAL AND STATE AGENCIES.
CERTAIN ELEMENTS...SUCH AS HUMIDITY VALUES AND SUSTAINED WIND
SPEEDS...MAY BE APPROXIMATED.




USA.gov is the U.S. government's official web portal to all federal, state and local government web resources and services.